EW4685 Weather Reports


Display with metric or nautical units.
time (UTC)temp
F
wind
direction
speed
MPH
gust
MPH
rain 1hr
in
rain 24hr
in
rain mn
in
humidity
%
barometer
mb
20260508161942 47 51 0.0 0.0 0.00 0.00 0.00 86 1022.1
20260508161439 48 51 0.0 0.0 0.00 0.00 0.00 86 1022.2
20260508160927 48 51 0.0 0.0 0.00 0.00 0.00 86 1022.2
20260508160420 49 51 0.0 0.0 0.00 0.00 0.00 85 1022.1
20260508155918 49 51 0.0 0.0 0.00 0.00 0.00 85 1022.1
20260508155407 49 51 0.0 0.0 0.00 0.00 0.00 85 1022.1
20260508154903 49 51 0.0 0.0 0.00 0.00 0.00 85 1022.1
20260508154356 49 51 0.0 0.0 0.00 0.00 0.00 85 1022.1
20260508153851 49 51 0.0 0.0 0.00 0.00 0.00 84 1022.1
20260508153343 50 51 0.0 0.0 0.00 0.00 0.00 84 1022.1
20260508152837 50 51 0.0 0.0 0.00 0.00 0.00 84 1022.0
20260508152331 50 51 0.0 0.0 0.00 0.00 0.00 83 1022.0
20260508151825 50 51 0.0 0.0 0.00 0.00 0.00 83 1022.0
20260508151320 50 51 0.0 0.0 0.00 0.00 0.00 83 1022.0
20260508150819 50 51 0.0 0.0 0.00 0.00 0.00 83 1022.0
20260508150313 50 51 0.0 0.0 0.00 0.00 0.00 83 1022.0
20260508145812 50 51 0.0 0.0 0.00 0.00 0.00 83 1022.1
20260508145309 50 51 0.0 0.0 0.00 0.00 0.00 83 1022.0
20260508144807 50 38 0.0 0.0 0.00 0.00 0.00 83 1022.0
20260508144304 50 352 0.0 0.0 0.00 0.00 0.00 82 1021.9
20260508143802 50 47 0.0 0.0 0.00 0.00 0.00 82 1021.8
20260508143302 50 303 0.0 0.0 0.00 0.00 0.00 82 1021.8
20260508142800 50 303 0.0 0.0 0.00 0.00 0.00 82 1021.9
20260508142300 50 57 0.0 0.0 0.00 0.00 0.00 82 1021.8
20260508141800 50 57 0.0 1.0 0.00 0.00 0.00 82 1021.9
20260508141259 50 57 0.0 1.0 0.00 0.00 0.00 82 1021.8
20260508140758 50 37 0.0 0.0 0.00 0.00 0.00 81 1021.7
20260508140259 50 33 0.0 1.0 0.00 0.00 0.00 81 1021.7
20260508135800 50 30 0.0 1.0 0.00 0.00 0.00 81 1021.7
20260508135254 50 31 0.0 0.0 0.00 0.00 0.00 81 1021.5
20260508134748 50 21 0.0 0.0 0.00 0.00 0.00 81 1021.5
20260508134241 50 14 0.0 0.0 0.00 0.00 0.00 80 1021.4
20260508133737 50 74 0.0 0.0 0.00 0.00 0.00 80 1021.5
20260508133231 50 74 0.0 0.0 0.00 0.00 0.00 80 1021.5
20260508132945 50 74 0.0 0.0 0.00 0.00 0.00 80 1021.5
20260508132217 50 74 0.0 0.0 0.00 0.00 0.00 79 1021.5
20260508131711 50 74 0.0 0.0 0.00 0.00 0.00 79 1021.5
20260508131207 51 74 0.0 0.0 0.00 0.00 0.00 79 1021.5
20260508130700 51 74 0.0 0.0 0.00 0.00 0.00 79 1021.7
20260508130154 51 74 0.0 0.0 0.00 0.00 0.00 79 1021.5
20260508125648 50 298 0.0 0.0 0.00 0.00 0.00 79 1021.5
20260508125143 50 308 0.0 2.0 0.00 0.00 0.00 79 1021.5
20260508124855 50 39 0.0 2.0 0.00 0.00 0.00 79 1021.5
20260508124346 50 45 0.0 0.0 0.00 0.00 0.00 79 1021.5
20260508123623 50 38 0.0 0.0 0.00 0.00 0.00 79 1021.5
20260508123117 50 45 0.0 1.0 0.00 0.00 0.00 78 1021.4
20260508122618 50 14 0.0 1.0 0.00 0.00 0.00 78 1021.5
20260508122333 51 40 0.0 1.0 0.00 0.00 0.00 78 1021.4
20260508121600 51 18 0.0 1.0 0.00 0.00 0.00 77 1021.4
20260508121054 51 283 0.0 1.0 0.00 0.00 0.00 77 1021.4
20260508120549 51 22 0.0 1.0 0.00 0.00 0.00 77 1021.4
20260508120300 51 355 0.0 2.0 0.00 0.00 0.00 77 1021.4
20260508115535 51 19 0.0 2.0 0.00 0.00 0.00 77 1021.4
20260508115031 51 42 0.0 0.0 0.00 0.00 0.00 76 1021.4
20260508114524 51 41 0.0 0.0 0.00 0.00 0.00 76 1021.4
20260508114018 51 42 0.0 3.0 0.00 0.00 0.00 76 1021.4
20260508113514 51 42 0.0 3.0 0.00 0.00 0.00 75 1021.3
20260508113005 51 336 0.0 1.0 0.00 0.00 0.00 75 1021.3
20260508112720 51 335 0.0 1.0 0.00 0.00 0.00 75 1021.3
20260508111953 52 7 0.0 3.0 0.00 0.00 0.00 74 1021.3
20260508111447 52 21 0.0 3.0 0.00 0.00 0.00 74 1021.3
20260508110941 52 14 0.0 3.0 0.00 0.00 0.00 74 1021.3
20260508110654 52 22 0.0 3.0 0.00 0.00 0.00 74 1021.3
20260508105934 52 34 0.0 1.0 0.00 0.00 0.00 74 1021.3
20260508105424 52 339 0.0 0.0 0.00 0.00 0.00 74 1021.3
20260508104919 52 339 0.0 0.0 0.00 0.00 0.00 73 1021.2
20260508104413 52 338 0.0 0.0 0.00 0.00 0.00 73 1021.2
20260508103905 52 320 0.0 1.0 0.00 0.00 0.00 73 1021.3
20260508103617 52 289 0.0 1.0 0.00 0.00 0.00 73 1021.2
20260508103118 52 303 0.0 1.0 0.00 0.00 0.00 73 1021.2
20260508102348 52 19 0.0 1.0 0.00 0.00 0.00 73 1021.3
20260508101848 52 331 0.0 2.0 0.00 0.00 0.00 73 1021.2
20260508101819 52 306 0.0 2.0 0.00 0.00 0.00 73 1021.1
20260508100830 52 293 0.0 1.0 0.00 0.00 0.00 72 1021.1
20260508100323 52 313 0.0 3.0 0.00 0.00 0.00 72 1021.1
20260508100316 51 349 0.0 4.0 0.00 0.00 0.00 72 1021.0
20260508095320 51 337 0.0 4.0 0.00 0.00 0.00 72 1020.9
20260508094819 51 273 0.0 0.0 0.00 0.00 0.00 73 1020.9
20260508094320 51 296 0.0 3.0 0.00 0.00 0.00 73 1020.8
20260508093908 51 334 0.0 3.0 0.00 0.00 0.00 73 1020.8
20260508093036 50 27 0.0 0.0 0.00 0.00 0.00 73 1020.8
20260508092800 50 345 0.0 1.0 0.00 0.00 0.00 74 1020.6
20260508091813 50 292 0.0 1.0 0.00 0.00 0.00 74 1020.6
20260508091313 49 61 0.0 0.0 0.00 0.00 0.00 75 1020.6
20260508090813 49 61 0.0 2.0 0.00 0.00 0.00 75 1020.6
20260508090313 49 319 0.0 2.0 0.00 0.00 0.00 75 1020.5
20260508085810 49 96 0.0 0.0 0.00 0.00 0.00 74 1020.3
20260508085309 49 96 0.0 0.0 0.00 0.00 0.00 74 1020.3
20260508084809 49 96 0.0 0.0 0.00 0.00 0.00 73 1020.2
20260508084309 50 96 0.0 0.0 0.00 0.00 0.00 72 1020.2
20260508083811 50 96 0.0 0.0 0.00 0.00 0.00 72 1019.9
20260508083535 50 289 0.0 0.0 0.00 0.00 0.00 71 1019.7
20260508082808 51 289 0.0 2.0 0.00 0.00 0.00 70 1019.7
20260508082758 51 289 0.0 2.0 0.00 0.00 0.00 69 1019.7
20260508081809 51 310 0.0 2.0 0.00 0.00 0.00 69 1019.6
20260508081305 51 63 0.0 0.0 0.00 0.00 0.00 68 1019.5
20260508080806 52 315 0.0 0.0 0.00 0.00 0.00 67 1019.4
20260508080304 52 335 0.0 1.0 0.00 0.00 0.00 67 1019.3
20260508075805 52 292 0.0 3.0 0.00 0.00 0.00 66 1019.2
20260508075308 52 280 0.0 3.0 0.00 0.00 0.00 66 1019.1
20260508074806 53 263 0.0 3.0 0.00 0.00 0.00 65 1019.0
20260508074305 53 211 0.0 2.0 0.00 0.00 0.00 65 1018.9
20260508073805 53 211 0.0 2.0 0.00 0.00 0.00 64 1018.9
20260508073303 53 263 0.0 4.0 0.00 0.00 0.00 64 1018.8
20260508072803 53 226 0.0 6.0 0.00 0.00 0.00 64 1018.7
20260508072307 53 272 0.0 6.0 0.00 0.00 0.00 63 1018.6
20260508071750 54 52 0.0 6.0 0.00 0.00 0.00 63 1018.5
20260508071246 54 299 0.0 3.0 0.00 0.00 0.00 62 1018.4
20260508070737 55 237 0.0 4.0 0.00 0.00 0.00 61 1018.2
20260508070232 55 98 0.0 4.0 0.00 0.00 0.00 60 1018.1
20260508065726 56 196 0.0 4.0 0.00 0.00 0.00 59 1018.0
20260508065227 56 268 0.0 7.0 0.00 0.00 0.00 58 1018.0
20260508064947 57 223 0.0 7.0 0.00 0.00 0.00 58 1017.9
20260508064226 57 317 0.0 7.0 0.00 0.00 0.00 57 1017.8
20260508063727 58 211 1.0 6.0 0.00 0.00 0.00 55 1017.7
20260508063227 58 287 0.0 7.0 0.00 0.00 0.00 55 1017.7
20260508062726 59 247 0.0 8.0 0.00 0.00 0.00 54 1017.5
20260508062442 59 280 1.0 8.0 0.00 0.00 0.00 54 1017.5
20260508061724 59 269 0.0 6.0 0.00 0.00 0.00 54 1017.4
20260508061223 59 320 1.0 6.0 0.00 0.00 0.00 54 1017.3
20260508060721 59 306 2.0 10.0 0.00 0.00 0.00 54 1017.3
20260508060221 59 294 2.0 10.0 0.00 0.00 0.00 54 1017.3
20260508055722 60 302 1.0 5.0 0.00 0.00 0.00 53 1017.2
20260508055219 60 206 1.0 7.0 0.00 0.00 0.00 53 1017.1
20260508054719 60 287 1.0 7.0 0.00 0.00 0.00 52 1017.1
20260508054218 60 261 0.0 5.0 0.00 0.00 0.00 53 1017.1
20260508053718 60 287 1.0 6.0 0.00 0.00 0.00 53 1017.0
20260508053219 60 268 1.0 6.0 0.00 0.00 0.00 53 1016.9
20260508052720 60 321 1.0 7.0 0.00 0.00 0.00 53 1016.8
20260508052213 60 251 1.0 7.0 0.00 0.00 0.00 52 1016.8
20260508051706 60 228 1.0 10.0 0.00 0.00 0.00 52 1016.8
20260508051646 60 228 1.0 10.0 0.00 0.00 0.00 52 1016.8
20260508050653 60 237 1.0 9.0 0.00 0.00 0.00 51 1016.7
20260508050148 61 281 1.0 5.0 0.00 0.00 0.00 50 1016.5
20260508045641 61 247 2.0 9.0 0.00 0.00 0.00 51 1016.5
20260508045136 61 239 2.0 9.0 0.00 0.00 0.00 50 1016.5
20260508044634 61 228 2.0 11.0 0.00 0.00 0.00 50 1016.5
20260508044123 61 254 1.0 11.0 0.00 0.00 0.00 49 1016.5
20260508043617 62 241 2.0 12.0 0.00 0.00 0.00 49 1016.5
20260508043111 61 218 2.0 13.0 0.00 0.00 0.00 50 1016.4
20260508042606 61 232 1.0 13.0 0.00 0.00 0.00 49 1016.4
20260508042321 61 242 1.0 9.0 0.00 0.00 0.00 49 1016.4
20260508041553 61 247 2.0 9.0 0.00 0.00 0.00 49 1016.3
20260508041048 61 219 3.0 13.0 0.00 0.00 0.00 50 1016.3
20260508040542 61 214 5.0 14.0 0.00 0.00 0.00 48 1016.3
20260508040038 61 226 5.0 15.0 0.00 0.00 0.00 48 1016.3
20260508035756 61 179 4.0 14.0 0.00 0.00 0.00 48 1016.2
20260508035020 61 232 2.0 13.0 0.00 0.00 0.00 47 1016.1
20260508034516 62 298 2.0 14.0 0.00 0.00 0.00 49 1016.2
20260508034008 61 262 2.0 14.0 0.00 0.00 0.00 48 1016.0
20260508033502 61 258 1.0 9.0 0.00 0.00 0.00 47 1016.0
20260508032957 61 218 2.0 11.0 0.00 0.00 0.00 49 1016.1
20260508032712 61 251 2.0 13.0 0.00 0.00 0.00 48 1016.0
20260508032208 61 189 2.0 13.0 0.00 0.00 0.00 46 1016.0
20260508031523 61 237 2.0 12.0 0.00 0.00 0.00 48 1016.0
20260508030427 61 258 2.0 7.0 0.00 0.00 0.00 54 1016.0
20260508025919 60 242 2.0 7.0 0.00 0.00 0.00 54 1016.1
20260508025416 61 328 1.0 7.0 0.00 0.00 0.00 50 1016.3
20260508025134 61 264 1.0 8.0 0.00 0.00 0.00 49 1016.3
20260508024632 61 220 2.0 10.0 0.00 0.00 0.00 48 1016.3
20260508024343 61 256 3.0 11.0 0.00 0.00 0.00 49 1016.4
20260508023353 61 227 2.0 11.0 0.00 0.00 0.00 48 1016.4
20260508022847 60 216 1.0 7.0 0.00 0.00 0.00 51 1016.5
20260508022340 60 231 1.0 6.0 0.00 0.00 0.00 55 1016.5
20260508021835 60 216 1.0 6.0 0.00 0.00 0.00 52 1016.7
20260508021328 59 239 1.0 7.0 0.00 0.00 0.00 59 1016.9
20260508020822 58 263 2.0 7.0 0.00 0.00 0.00 57 1016.8
20260508020322 58 244 2.0 7.0 0.00 0.00 0.00 58 1016.8
20260508015809 58 245 2.0 8.0 0.00 0.00 0.00 59 1016.9
20260508015306 57 275 3.0 9.0 0.00 0.00 0.00 61 1016.9
20260508014759 57 300 3.0 9.0 0.00 0.00 0.00 60 1016.9
20260508014301 57 14 3.0 11.0 0.00 0.00 0.00 61 1016.9
20260508013756 57 282 2.0 11.0 0.00 0.00 0.00 61 1017.0
20260508013256 57 314 2.0 9.0 0.00 0.00 0.00 61 1017.0
20260508012754 56 7 2.0 9.0 0.00 0.00 0.00 63 1017.2
20260508012254 56 291 3.0 10.0 0.00 0.00 0.00 66 1017.1
20260508011755 55 13 3.0 10.0 0.00 0.00 0.00 67 1017.3
20260508011254 55 277 3.0 9.0 0.00 0.00 0.00 66 1017.3
20260508011013 55 355 2.0 9.0 0.00 0.00 0.00 67 1017.4
20260508010255 54 284 3.0 8.0 0.00 0.00 0.00 67 1017.5
20260508005754 54 329 4.0 10.0 0.00 0.00 0.00 66 1017.5
20260508005255 54 21 4.0 11.0 0.00 0.00 0.00 66 1017.5
20260508004754 54 301 2.0 11.0 0.00 0.00 0.00 66 1017.5
20260508004254 54 298 3.0 8.0 0.00 0.00 0.00 67 1017.5
20260508003755 54 25 3.0 8.0 0.00 0.00 0.00 66 1017.5
20260508003254 54 10 2.0 8.0 0.00 0.00 0.00 65 1017.6
20260508002755 55 22 2.0 7.0 0.00 0.00 0.00 64 1017.6
20260508002251 55 346 2.0 8.0 0.00 0.00 0.00 64 1017.6
20260508001746 55 51 2.0 8.0 0.00 0.00 0.00 63 1017.6
20260508001246 55 340 2.0 7.0 0.00 0.00 0.00 63 1017.5
20260508000746 55 328 2.0 6.0 0.00 0.00 0.00 65 1017.6
20260508000243 54 311 1.0 8.0 0.00 0.00 0.00 65 1017.5
20260507235743 54 22 2.0 8.0 0.00 0.00 0.00 65 1017.5
20260507235243 53 38 1.0 7.0 0.00 0.00 0.00 67 1017.6
20260507234743 53 323 1.0 7.0 0.00 0.00 0.00 68 1017.7
20260507234737 52 348 2.0 9.0 0.00 0.00 0.00 69 1017.7
20260507234000 52 19 3.0 9.0 0.00 0.00 0.00 70 1017.7
20260507233242 51 4 3.0 10.0 0.00 0.00 0.00 70 1017.6
20260507232742 51 65 3.0 10.0 0.00 0.00 0.00 71 1017.7
20260507232239 51 317 4.0 10.0 0.00 0.00 0.00 71 1017.7
20260507231738 51 48 4.0 10.0 0.00 0.00 0.00 70 1017.8
20260507231239 51 9 3.0 10.0 0.00 0.00 0.00 69 1017.6
20260507230738 52 51 2.0 8.0 0.00 0.00 0.00 69 1017.6
20260507230238 52 43 1.0 7.0 0.00 0.00 0.00 69 1017.6
20260507225739 51 318 1.0 7.0 0.00 0.00 0.00 69 1017.7
20260507225238 51 12 1.0 8.0 0.00 0.00 0.00 70 1017.7
20260507224739 51 328 2.0 8.0 0.00 0.00 0.00 69 1017.5
20260507224238 51 276 2.0 8.0 0.00 0.00 0.00 69 1017.4
20260507223733 51 48 1.0 8.0 0.00 0.00 0.00 69 1017.5
20260507223233 51 38 0.0 4.0 0.00 0.00 0.00 71 1017.5
20260507222954 50 306 1.0 5.0 0.00 0.00 0.00 71 1017.6
20260507222233 50 59 1.0 8.0 0.00 0.00 0.00 71 1017.5
20260507221957 49 344 1.0 8.0 0.00 0.00 0.00 71 1017.4
20260507221234 49 29 1.0 8.0 0.00 0.00 0.00 73 1017.4
20260507220733 48 3 1.0 6.0 0.00 0.00 0.00 75 1017.2
20260507220234 47 289 1.0 6.0 0.00 0.00 0.00 76 1017.2
20260507215734 46 14 2.0 6.0 0.00 0.00 0.00 78 1017.3
20260507215228 46 334 1.0 6.0 0.00 0.00 0.00 79 1017.2
20260507214725 45 333 1.0 5.0 0.00 0.00 0.00 80 1017.1
20260507214225 45 64 0.0 5.0 0.00 0.00 0.00 81 1017.1
20260507213725 44 26 1.0 4.0 0.00 0.00 0.00 81 1017.0
20260507213223 44 321 1.0 4.0 0.00 0.00 0.00 81 1017.1
20260507212722 44 46 1.0 4.0 0.00 0.00 0.00 82 1017.0
20260507212223 44 349 1.0 4.0 0.00 0.00 0.00 82 1017.2
20260507211723 43 10 1.0 4.0 0.00 0.00 0.00 82 1017.0
20260507211221 43 30 1.0 4.0 0.00 0.00 0.00 82 1017.0
20260507210721 43 45 0.0 4.0 0.00 0.00 0.00 82 1017.0
20260507210224 43 355 0.0 5.0 0.00 0.00 0.00 82 1016.9
20260507205720 43 41 1.0 5.0 0.00 0.00 0.00 82 1016.9
20260507205441 43 339 0.0 3.0 0.00 0.00 0.00 82 1016.9
20260507204718 43 1 1.0 7.0 0.00 0.00 0.00 82 1016.9
20260507204219 43 320 1.0 7.0 0.00 0.00 0.00 82 1016.8
20260507203717 43 358 1.0 7.0 0.00 0.00 0.00 82 1016.8
20260507203216 43 48 1.0 6.0 0.00 0.00 0.00 81 1016.9
20260507202715 43 306 1.0 6.0 0.00 0.00 0.00 82 1016.8
20260507202218 42 26 1.0 4.0 0.00 0.00 0.00 82 1016.8
20260507201926 42 43 1.0 5.0 0.00 0.00 0.00 82 1016.8
20260507201203 42 20 1.0 7.0 0.00 0.00 0.00 83 1016.8
20260507200919 42 19 1.0 7.0 0.00 0.00 0.00 82 1016.8
20260507200151 42 36 2.0 8.0 0.00 0.00 0.00 83 1016.9
20260507195646 42 45 1.0 8.0 0.00 0.00 0.00 83 1016.7
20260507195139 41 45 1.0 3.0 0.00 0.00 0.00 83 1016.4
20260507194633 41 44 0.0 3.0 0.00 0.00 0.00 83 1016.5
20260507194128 41 36 0.0 3.0 0.00 0.00 0.00 83 1016.7
20260507193621 41 43 0.0 3.0 0.00 0.00 0.00 83 1016.8
20260507193116 41 53 0.0 3.0 0.00 0.00 0.00 83 1016.7
20260507192609 41 30 0.0 1.0 0.00 0.00 0.00 82 1016.9
20260507192327 42 50 0.0 0.0 0.00 0.00 0.00 81 1016.8
20260507191559 42 50 0.0 0.0 0.00 0.00 0.00 81 1016.9
20260507191050 42 51 0.0 1.0 0.00 0.00 0.00 81 1016.8
20260507190546 42 324 0.0 3.0 0.00 0.00 0.00 81 1016.9
20260507190038 42 263 0.0 3.0 0.00 0.00 0.00 81 1016.8
20260507185533 42 302 0.0 2.0 0.00 0.00 0.00 81 1016.9
20260507185028 42 354 0.0 2.0 0.00 0.00 0.00 80 1016.9
20260507184523 43 47 0.0 2.0 0.00 0.00 0.00 79 1016.9
20260507184019 43 324 0.0 3.0 0.00 0.00 0.00 79 1017.0
20260507183510 43 353 0.0 4.0 0.00 0.00 0.00 80 1017.0
20260507183002 42 300 0.0 4.0 0.00 0.00 0.00 80 1016.9
20260507182950 42 344 0.0 5.0 0.00 0.00 0.00 80 1016.9
20260507181951 43 35 0.0 5.0 0.00 0.00 0.00 79 1016.9
20260507181448 43 291 1.0 7.0 0.00 0.00 0.00 79 1017.0
20260507181201 43 290 1.0 7.0 0.00 0.00 0.00 79 1016.9
20260507180434 42 336 1.0 5.0 0.00 0.00 0.00 79 1016.8
20260507175930 42 52 1.0 6.0 0.00 0.00 0.00 79 1016.8
20260507175643 42 275 1.0 6.0 0.00 0.00 0.00 80 1016.5
20260507175141 42 287 0.0 4.0 0.00 0.00 0.00 80 1016.5
20260507174416 42 301 0.0 4.0 0.00 0.00 0.00 79 1016.5
20260507173914 42 20 0.0 3.0 0.00 0.00 0.00 79 1016.9
20260507173412 42 343 0.0 4.0 0.00 0.00 0.00 79 1016.8
20260507172911 42 331 0.0 4.0 0.00 0.00 0.00 79 1016.8
20260507172411 42 45 1.0 5.0 0.00 0.00 0.00 78 1016.8
20260507171909 42 335 1.0 5.0 0.00 0.00 0.00 78 1016.8
20260507171408 42 35 0.0 5.0 0.00 0.00 0.00 78 1016.8
20260507170906 42 265 0.0 3.0 0.00 0.00 0.00 78 1016.9
20260507170403 42 31 0.0 2.0 0.00 0.00 0.00 78 1016.8
20260507165903 42 310 0.0 4.0 0.00 0.00 0.00 77 1017.0
20260507165849 42 351 0.0 4.0 0.00 0.00 0.00 77 1016.9
20260507164903 41 74 0.0 1.0 0.00 0.00 0.00 77 1016.9
20260507164403 41 306 0.0 2.0 0.00 0.00 0.00 77 1017.1
20260507163908 41 310 0.0 2.0 0.00 0.00 0.00 78 1017.1
20260507163400 40 19 0.0 2.0 0.00 0.00 0.00 80 1017.0
20260507162857 39 341 0.0 2.0 0.00 0.00 0.00 82 1017.1
20260507162622 38 72 0.0 1.0 0.00 0.00 0.00 83 1017.1
20260507162122 38 59 0.0 0.0 0.00 0.00 0.00 83 1017.2